Reflectivity
-20 -20 -20 -20 -20 -20 -20 -20 -20 -20 -20 -20 -20 -20 -20 -20 -20 -20 -20 -20 -20 -20 -20 -13 2 -20 -20 -20 -20 -20 -20 -20 -20 -20 -6 4 12 -12 2 -20 -16 18 35
-20 -20 -20 -20 -20 -20 -20 -20 -20 -20 -20 -20 -20 -20 -20 -20 -20 -20 -20 -20 -20 -20 -19 -20 -20 -20 -20 -20 -20 -20 -20 -20 -20 -9 -15 -10 -20 -20 3 -13 -20 23 36
-20 -20 -20 -20 -20 -20 -20 -20 -20 -20 -20 -20 -20 -20 -20 -20 -20 -20 -20 -20 -20 -16 -4 -20 -20 -20 -20 -20 -20 -20 -20 -20 -20 -20 -20 -20 -20 -13 1 -15 32 34 33
-20 -20 -20 -20 -20 -20 -20 -20 -20 -20 -20 -20 -20 -20 -20 -20 -20 -20 -20 -20 -20 -20 -20 -20 -20 -20 -20 -20 -20 -20 -20 -20 -6 -20 -20 -20 -20 -8 -20 2 22 18 28
-20 -20 -20 -20 -20 -20 -20 -20 -20 -20 -20 -20 -20 -20 -20 -20 -20 -20 -20 -20 -20 -20 -20 -20 -20 -20 -20 -20 -20 -20 -20 -20 -18 -20 -2 -20 -20 -18 -20 28 -1 19 24
-20 -20 -20 -20 -20 -20 -20 -20 -20 -20 -20 -20 -20 -20 -20 -20 -20 -20 -20 -20 -20 -20 -19 -20 -20 -20 -20 -20 -20 -20 -20 -20 -20 -19 -11 -20 -20 -20 -20 28 -16 32 1
-20 -20 -20 -20 -20 -20 -20 -20 -20 -20 -20 -20 -20 -20 -20 -20 -20 -20 -20 -20 -20 -20 -20 -20 -20 -20 -20 -20 -20 -20 -20 -20 -20 23 -15 -17 -17 22 -17 9 8 1 -14
-20 -16 -20 -20 -20 -20 -20 -20 -20 -20 -20 -20 -20 -20 -20 -20 -20 -20 -20 -20 -20 -20 -20 -20 -20 -20 -20 -20 -20 -20 -7 -20 5 21 39 -11 7 -11 -19 -20 -8 7 -17
-20 -20 6 -20 -20 -20 -20 -20 -20 -20 -20 -20 -20 -20 -20 -20 -20 -20 -20 -20 -20 -20 -20 -20 -20 -20 -20 -20 -20 -20 -20 -12 26 42 39 26 16 -9 -19 -20 -10 -3 -19
-20 -20 -20 -1 -20 -20 -20 -19 -20 -20 -20 -20 -20 -20 -20 -19 -20 -20 -20 -20 -20 -20 -20 -20 -20 -20 -20 -20 -20 -20 -20 -20 -18 30 7 -18 24 5 -5 1 -20 -20 -20
-20 -20 -20 -20 9 -20 -20 -20 -20 -20 -20 -20 -20 -20 -17 -20 -20 -20 -20 -20 -20 -20 -20 -20 -20 -20 -20 -20 -20 -20 -20 -20 33 34 -20 -20 -19 -11 -20 -20 -20 -20 -20
-20 -20 -20 -20 -20 -9 -20 -20 -20 -20 -20 -20 -20 -20 -20 -20 -20 -20 -20 -20 -20 -20 -20 -20 -20 -20 -20 -20 -20 -12 -20 31 21 44 -20 -20 12 0 -18 -20 -20 -20 -20
-20 -20 -20 -20 -20 -20 -20 -19 -20 -20 -20 -20 -20 -20 -20 -20 -20 -20 -20 -20 -20 -20 -20 -20 -20 -20 -20 -20 -20 -20 -20 -20 21 38 26 -19 -12 8 -20 -20 -20 -20 -20
-20 -20 -20 -20 -7 5 -20 -20 -20 -20 -20 -20 -20 -20 -20 -20 -20 -20 -20 -20 -20 -20 -20 -20 -20 -20 -20 -14 -16 -20 -20 -20 -20 17 39 30 -20 24 11 -20 -20 -20 -20
-20 -20 -20 -20 -20 -18 0 -20 -20 -20 -20 -20 -20 -20 -20 -20 -20 -20 -20 -7 -20 -20 -20 -20 -20 -20 -20 -20 -20 -20 -20 -20 31 -20 -6 36 33 27 -9 -20 -20 -20 -20
-20 -20 -20 -20 -20 -20 -20 -2 -17 -20 -20 -20 -20 -20 -20 -20 -20 -20 -20 -20 -20 -12 -20 -20 -20 -20 -20 -20 -20 -19 -20 -20 -3 -8 -20 7 10 -10 -20 0 10 1 -20
-20 -20 -20 -20 -20 -20 -20 -20 -16 -19 -20 -20 -20 -20 -20 -20 -20 -20 -20 -20 -20 -20 -20 -11 -20 -3 15 -20 -20 -20 -20 -20 -20 -20 -20 -12 -18 -20 -20 -20 -18 -3 -13
-20 -20 -20 -20 -20 -20 -20 -20 -20 -20 9 -20 -20 -20 -20 -20 -20 -20 -20 -20 -20 -20 -20 -20 -20 -20 -20 -20 -20 -6 -20 -20 -20 -20 -20 -20 -20 -20 -20 -13 -12 18 2
-20 -20 -20 -20 -20 -20 -20 -20 -20 -20 -12 16 -20 -20 -20 -20 -20 -20 -20 -20 -20 -20 -20 -20 -20 -20 -20 -20 -20 31 -19 -20 -20 -12 -20 -20 -20 -20 -20 -15 -16 0 -10
-20 -20 -20 -20 -20 -20 -20 -20 -20 -20 -20 -11 27 -19 -6 -20 -20 -20 -20 -20 -20 -20 -20 -20 -20 -13 -20 -20 -20 14 -20 -8 -20 4 31 -12 -7 -20 -20 -20 -20 -20 4
-20 -20 -20 -20 -20 -20 -20 -20 -20 -20 -20 -20 -20 32 -15 -20 -20 -20 -20 -20 -20 -20 -20 -20 -20 -20 -20 1 -20 -20 -20 -20 -20 -20 -20 11 11 -8 -20 -20 -20 -20 -20
-20 -20 -20 -20 -20 -20 -20 -20 -20 -20 -20 -20 -20 -20 32 1 -20 -20 -20 -20 -20 -20 -20 -20 -20 -20 -20 -20 -20 -20 -20 -20 -20 -20 -10 -20 -7 5 -5 -18 -20 -20 -7
-20 -20 -20 -20 -20 -20 -20 -20 -20 -20 -20 -20 -20 -20 -20 37 -4 -20 -20 -20 -20 -20 -20 -20 -20 -20 -20 -20 -20 -20 -20 -20 -20 -20 -20 1 -8 -2 -2 -20 -20 -20 -20
-20 -20 -20 -20 -20 -20 -20 -20 -20 -20 -20 -20 -20 -20 -20 -7 35 -1 -20 -20 -20 -20 -20 -20 -20 -20 -20 -20 -20 -20 -20 -20 -20 -20 -20 -20 -20 2 -8 -20 -20 -20 -20
-20 -20 -20 -20 -20 -20 -20 -20 -20 -20 -20 -20 -20 -20 -20 -20 31 37 19 -20 -20 -20 -20 -20 -20 -20 -20 -20 -20 -20 -20 -20 -20 -20 -20 -20 6 6 5 6 -20 -20 -20
-20 -20 -20 -20 -20 -20 -20 -20 -20 -10 -20 -20 -20 -20 -20 -9 33 48 37 -16 -20 -20 -20 -20 -20 -20 -20 -20 -20 -20 -20 -20 -20 -20 -20 -20 -20 -20 -20 -20 -20 -20 -20
Wind_Speed
11 13 13 11 9 10 10 10 8 9 11 10 9 9 8 8 8 8 8 8 8 7 8 8 8 7 4 5 7 9 14 15 15 16 16 18 16 18 17 16 16 14 8
5 12 10 12 8 7 8 9 8 8 10 11 10 10 10 8 8 7 7 7 7 7 8 7 7 7 6 7 8 10 14 14 12 16 15 18 19 16 17 17 18 12 8
5 12 10 9 8 7 7 8 8 8 10 11 11 11 11 9 8 8 7 7 6 8 8 6 7 7 7 8 10 12 13 15 17 18 17 9 10 15 16 14 20 14 12
2 12 11 9 8 8 8 7 6 6 8 9 11 11 11 10 9 8 8 7 6 6 5 6 8 8 7 9 11 13 13 14 13 14 9 11 10 14 17 16 19 16 16
2 12 14 12 8 7 7 7 6 5 6 7 9 10 11 11 10 9 8 8 6 6 6 6 7 7 10 11 12 12 13 13 12 9 4 9 8 13 17 16 15 17 16
5 15 14 14 10 6 6 5 5 5 5 7 8 8 10 11 10 9 9 8 7 6 5 6 6 9 11 11 12 12 13 12 10 6 7 9 6 14 17 14 15 18 17
8 13 12 10 10 8 7 6 6 5 4 5 7 8 7 8 9 9 9 8 7 6 6 6 8 10 10 11 12 12 11 11 7 1 7 7 7 16 16 13 17 17 17
8 12 11 10 9 7 6 6 5 6 5 4 5 6 8 7 8 9 7 7 7 6 5 7 8 9 10 11 10 9 9 6 8 12 9 6 8 16 17 18 18 18 17
4 5 9 9 7 6 5 5 5 5 6 6 5 4 5 6 4 7 7 6 7 7 6 8 8 10 10 10 9 6 7 5 8 4 9 7 9 16 18 19 19 17 16
4 2 2 9 8 7 6 6 5 6 5 6 7 5 6 5 5 4 5 7 8 6 7 8 8 8 9 9 9 9 8 5 7 13 7 7 17 19 19 19 18 18 16
5 2 1 2 9 8 7 9 7 8 8 7 7 8 6 6 7 8 8 7 9 7 8 9 10 9 8 8 8 9 4 5 4 6 8 16 17 20 19 18 17 17 16
8 7 1 4 2 5 5 9 8 8 6 7 8 8 6 6 6 9 10 10 8 8 9 8 9 9 9 5 4 3 3 1 6 8 6 15 18 20 19 18 16 17 16
11 8 7 5 5 5 5 4 3 4 5 6 8 7 8 6 4 4 4 5 5 6 4 6 6 5 8 5 5 5 4 3 3 6 7 15 19 19 20 19 18 17 16
10 10 11 11 9 4 3 3 5 6 5 5 8 8 5 4 5 4 6 7 6 6 7 7 5 7 7 6 6 7 6 4 3 4 7 11 17 19 19 20 18 16 14
7 7 7 9 9 7 6 5 4 5 4 5 6 10 8 7 6 5 5 7 8 8 8 7 6 6 5 5 5 6 6 5 7 5 5 4 10 15 17 18 17 16 15
10 9 10 12 9 10 8 9 7 5 5 7 6 7 11 8 7 8 6 6 7 7 8 7 6 5 4 4 4 5 5 5 7 8 5 5 9 12 13 16 16 17 17
14 16 17 17 18 15 19 11 10 9 7 7 9 10 10 11 10 10 8 5 5 5 7 8 5 5 5 4 5 4 4 6 5 9 8 5 4 8 12 14 14 17 17
22 21 21 19 20 18 17 16 10 10 10 10 10 11 14 13 14 9 8 6 5 5 5 6 7 6 5 4 5 5 4 5 6 7 8 6 5 4 5 10 12 14 16
19 21 21 19 19 21 18 17 17 13 10 12 12 12 16 16 16 10 8 7 8 4 5 6 5 8 5 4 5 3 5 4 5 6 7 8 7 4 4 7 10 12 13
21 21 24 24 20 18 15 16 15 13 12 12 12 14 17 16 19 14 10 8 10 6 5 5 8 5 7 5 4 4 3 1 3 3 5 7 8 6 5 6 5 6 11
19 20 19 23 22 18 15 14 15 15 12 11 13 17 19 18 21 18 11 11 12 9 8 10 7 9 5 5 6 4 3 4 1 4 4 5 8 10 8 6 5 4 5
17 18 19 20 20 18 15 15 15 16 17 13 13 18 20 23 22 19 18 15 15 11 10 13 13 7 7 8 5 5 3 1 2 4 4 4 6 6 7 7 5 6 6
18 18 19 21 22 19 20 16 16 17 15 16 12 14 20 21 25 23 21 16 15 14 12 14 14 15 10 8 11 6 4 5 5 5 7 5 7 6 7 7 7 8 7
19 18 18 21 23 20 19 18 21 18 18 16 13 14 16 22 31 31 25 20 17 14 15 13 13 12 13 12 8 8 5 5 4 4 5 8 6 8 10 7 9 10 10
18 18 19 21 23 22 20 20 18 21 17 16 16 18 23 23 18 21 22 23 18 15 16 17 16 15 12 11 11 10 8 5 2 4 4 5 5 7 8 8 8 8 10
18 19 19 22 22 21 21 22 23 24 23 19 21 12 16 17 15 20 23 19 17 17 15 15 17 18 14 11 10 11 9 8 4 3 3 7 9 7 8 7 7 8 9
Wind_Direction
79 131 123 117 123 123 122 122 132 138 135 133 130 126 120 112 110 110 107 104 109 117 124 127 126 132 119 93 88 93 110 113 122 124 136 128 113 104 104 98 94 96 103
83 133 125 125 127 126 122 118 125 135 140 141 140 136 134 132 130 124 123 120 126 138 141 147 149 155 139 113 116 113 113 117 113 117 120 116 113 117 116 111 99 97 153
72 125 137 120 117 113 108 117 124 136 148 147 148 146 144 145 142 140 141 140 153 155 142 152 164 162 147 131 127 120 117 124 131 134 134 121 121 133 128 127 121 150 150
305 122 134 123 122 122 131 122 115 134 148 152 151 152 151 150 153 155 162 162 171 132 144 168 175 170 143 125 128 131 131 137 152 156 151 134 135 145 133 150 145 159 137
353 122 121 125 127 147 141 136 132 133 136 146 153 157 156 154 158 168 168 172 166 148 176 171 172 167 143 142 141 144 148 163 174 178 111 131 136 152 136 158 147 136 121
8 81 128 135 142 143 142 145 132 132 147 154 154 158 160 166 168 169 174 177 169 174 190 152 147 139 145 151 153 159 169 176 166 216 135 123 128 143 135 151 133 124 115
32 105 121 118 133 145 152 158 147 149 155 160 160 159 179 177 168 166 175 176 182 184 193 147 143 149 150 160 168 174 180 184 173 73 126 92 127 133 139 135 121 120 117
345 110 124 125 131 140 154 157 155 154 148 156 161 171 172 183 172 168 172 176 176 180 179 146 157 157 160 171 173 181 198 183 65 36 304 109 137 136 140 131 123 116 119
77 354 125 133 139 135 148 149 149 149 147 147 151 164 164 158 171 176 176 178 179 181 150 153 171 165 168 170 167 154 203 105 118 124 238 121 143 137 141 130 125 124 123
79 104 282 143 156 164 165 174 152 146 149 144 146 151 149 151 161 193 203 190 184 187 160 163 170 172 175 170 168 170 212 172 166 181 187 149 159 147 142 134 132 128 128
38 104 182 205 161 172 182 168 175 175 163 155 156 154 166 200 181 176 209 182 188 179 173 174 165 179 179 181 172 190 199 240 172 158 154 154 150 145 140 138 137 136 138
14 6 305 168 230 164 211 137 184 192 198 182 186 172 205 215 191 196 184 163 183 181 176 177 172 179 178 169 177 151 221 348 76 243 140 154 148 149 146 142 142 140 139
354 0 355 320 181 188 199 179 188 204 203 196 190 186 189 210 232 179 134 151 160 181 183 177 172 193 212 190 167 166 202 81 108 20 143 150 154 157 153 151 147 147 143
356 353 1 353 7 272 211 209 194 220 196 202 192 187 190 204 202 219 169 176 177 170 208 183 188 198 208 214 175 175 149 144 127 133 202 157 159 158 160 157 155 154 149
358 5 347 346 344 336 272 235 254 225 177 233 202 188 189 203 197 206 227 172 183 185 197 184 182 192 187 196 197 153 160 155 127 125 146 206 165 160 162 162 158 160 160
358 5 7 355 338 328 314 303 243 245 212 197 242 198 198 201 189 199 224 188 192 177 193 174 172 162 166 189 199 183 151 152 116 135 139 139 178 160 165 171 172 170 172
357 5 6 352 345 337 324 309 312 233 220 207 205 219 208 208 215 203 199 213 206 195 175 168 148 140 167 187 189 189 153 146 139 141 154 164 140 163 175 176 181 177 175
360 357 349 346 338 326 316 306 295 290 238 215 207 204 212 210 220 211 191 191 212 201 151 160 147 161 169 182 191 186 171 154 158 158 161 158 159 162 155 170 181 185 182
355 350 342 339 332 328 323 313 291 277 276 242 210 207 204 207 215 231 205 187 189 199 173 152 154 157 162 194 213 183 155 157 178 175 165 157 145 158 172 181 164 181 189
353 350 338 328 324 315 311 306 298 265 267 273 243 207 199 205 205 214 206 193 187 185 175 164 161 158 169 183 168 100 86 73 161 221 185 161 155 170 185 180 182 173 181
345 332 335 323 322 323 317 307 301 297 253 257 253 248 197 197 205 200 207 199 183 191 181 169 165 164 165 182 113 83 45 30 354 201 200 185 175 176 187 183 183 180 193
337 332 331 320 314 314 305 297 292 293 290 242 251 239 251 189 198 202 196 198 185 187 183 174 173 172 179 184 147 123 139 273 248 226 187 195 179 170 178 180 186 180 181
336 332 329 315 314 306 302 294 287 286 274 251 230 236 236 229 192 200 194 192 189 183 188 177 176 181 177 182 166 153 154 201 153 181 207 192 193 184 183 183 198 200 185
334 328 325 313 311 305 305 295 287 281 277 278 229 243 232 230 209 181 189 190 187 187 186 176 179 184 180 180 178 205 229 162 157 137 202 204 190 188 189 191 201 201 198
332 328 328 315 313 311 305 296 287 275 273 265 253 223 232 242 245 185 194 185 186 189 188 179 176 184 192 172 185 186 214 254 207 146 162 179 190 198 200 195 195 200 199
334 328 327 318 319 314 309 300 292 279 276 264 265 248 221 232 196 205 206 183 190 185 188 182 181 183 195 185 176 189 195 211 191 176 128 181 195 203 193 196 199 199 196